Vorticity
8 8 8 8 7 7 6 6 5 5 5 5 6 6 6 7 7 7 7 7 7 7 6 6 5 5 4 4 5 5 5 5 5 5 6 7 7 6 5 4 3 3 4 5 6 8 9 11 11 10 9 9 10 10 11 11 10 8 7 6 7 7 7 6 6 6 6 6 6 6 6 6 5 5 5 5 5 6 6 8 9 10 11 11 10 9 8 6 5 5 5 6 7 8 10 12 14 14 14 13 12 11 12
8 8 8 8 7 7 6 6 6 6 5 5 5 5 6 6 6 7 7 7 7 7 6 6 5 5 5 5 5 6 6 5 5 6 7 7 6 5 4 3 3 4 4 5 6 7 9 11 11 10 9 9 10 11 12 11 10 8 6 6 7 7 7 6 6 6 6 6 6 6 6 6 6 6 6 6 6 6 6 7 8 10 11 11 10 9 8 6 5 5 5 5 7 8 9 11 13 14 14 13 12 11 11
7 7 7 7 7 7 7 6 6 6 5 5 5 5 6 6 6 7 7 7 7 6 6 6 5 5 5 6 6 6 6 5 5 6 6 6 5 5 4 4 4 4 4 5 5 7 9 12 12 11 9 9 10 11 12 11 9 6 4 5 7 8 8 7 6 6 6 6 6 6 6 6 6 6 6 6 6 6 6 7 8 9 10 10 10 9 8 6 5 5 4 5 6 7 9 10 12 14 14 14 12 11 10
7 7 7 7 7 7 7 7 6 6 6 6 6 6 6 6 6 7 7 7 6 6 6 5 5 5 6 6 6 6 6 5 6 6 6 6 5 5 4 4 4 4 4 5 5 7 9 12 12 11 9 9 10 11 12 10 7 5 3 3 5 6 8 7 7 6 6 6 6 6 5 6 6 6 7 7 7 7 7 7 7 8 9 10 9 9 7 6 5 4 4 4 5 6 8 9 11 13 14 14 13 12 10
7 7 7 7 7 8 8 8 7 7 6 6 6 6 6 6 6 6 6 6 6 6 5 5 6 6 6 6 6 6 6 6 6 6 6 5 5 5 5 5 5 5 5 6 6 8 11 13 13 11 9 8 9 11 11 8 6 3 2 2 3 4 6 7 7 7 6 6 5 5 4 5 5 6 7 7 8 8 7 7 7 8 9 9 9 8 7 6 5 4 3 3 4 4 6 8 9 11 13 14 14 13 12
7 7 7 7 7 8 8 8 7 7 6 6 6 6 6 6 6 6 6 6 6 6 6 6 6 7 7 7 7 6 6 6 6 6 5 5 5 5 5 6 6 6 6 6 7 8 11 14 13 11 8 8 8 9 9 7 4 2 2 2 3 4 5 6 6 6 6 5 4 3 3 3 4 6 7 8 8 8 8 8 8 8 8 9 9 8 8 7 6 4 4 3 3 3 4 5 7 9 11 13 13 14 13
7 7 7 7 7 7 7 7 7 7 7 6 6 6 6 6 6 6 7 7 6 6 6 6 7 7 8 8 7 7 6 6 6 6 6 5 5 5 6 6 7 6 6 6 7 8 11 13 13 10 8 7 7 8 7 5 3 1 1 2 3 3 4 5 6 6 6 5 4 3 2 3 4 6 7 8 8 9 9 9 8 8 8 8 8 8 8 7 6 5 4 3 3 2 2 3 5 7 9 10 12 13 13
7 7 7 7 8 8 7 7 7 8 8 8 8 7 7 7 7 7 7 7 7 7 7 7 7 8 8 8 7 7 7 7 7 7 7 6 6 6 6 7 7 7 6 6 7 8 9 12 12 10 7 6 6 6 6 4 2 1 0 1 2 3 4 4 5 5 5 4 4 3 3 4 5 6 7 8 8 8 8 9 9 9 9 9 8 8 8 7 7 6 5 4 3 2 2 2 3 4 6 8 10 11 12
8 8 8 8 8 9 8 8 8 8 8 8 8 8 8 8 8 8 8 7 7 7 7 7 7 7 7 7 7 7 7 7 7 7 7 7 6 6 7 7 7 7 7 7 7 8 9 10 10 9 8 6 6 5 4 3 2 1 0 1 2 3 4 5 6 6 6 5 4 4 4 5 6 7 7 7 7 7 7 7 8 8 9 9 9 8 8 8 7 6 5 5 4 3 3 2 2 2 3 5 7 9 11
9 9 9 9 9 9 9 9 9 9 9 8 7 7 8 7 7 7 7 7 7 7 7 7 7 7 7 7 7 7 7 7 8 8 7 7 7 7 7 7 7 7 7 7 8 8 9 9 9 9 8 7 6 5 4 3 2 2 2 2 3 4 5 6 7 7 6 5 5 4 4 5 6 7 7 7 6 6 6 6 6 7 8 8 8 8 8 8 8 7 6 6 5 4 4 3 2 2 2 2 4 5 8
10 10 10 10 10 10 10 10 10 9 9 9 8 8 8 8 7 7 7 6 6 6 6 6 6 6 6 6 6 7 7 7 7 7 7 7 8 8 8 8 7 7 6 7 8 9 10 8 8 7 7 6 6 5 4 4 3 3 3 4 4 5 6 8 9 9 7 6 5 5 4 5 6 7 7 7 6 5 5 5 5 5 5 6 7 7 8 8 8 8 7 7 6 5 5 4 4 3 2 2 2 2 4
11 11 11 11 11 11 10 10 10 10 9 9 9 9 8 8 8 8 7 7 6 6 6 6 6 6 6 6 6 6 6 7 7 7 7 8 8 8 8 8 7 7 6 7 8 10 10 9 7 6 5 5 5 4 4 4 4 4 4 5 5 6 6 8 9 9 8 6 5 4 4 5 5 6 6 6 5 5 5 5 4 4 4 4 5 5 6 7 7 7 7 7 7 6 6 5 5 4 3 3 2 1 2
12 11 11 11 11 11 11 11 11 10 10 10 9 9 9 9 9 8 8 7 7 6 6 6 6 6 6 6 6 6 6 7 7 7 7 8 8 8 9 8 8 7 6 7 9 10 11 9 7 5 4 4 3 2 2 3 4 4 5 5 5 5 6 8 9 10 9 7 5 4 4 4 4 4 4 4 4 4 4 4 4 4 4 4 4 4 4 4 5 6 6 7 7 7 7 6 6 6 5 4 3 2 1
12 11 11 11 11 11 11 11 11 11 11 10 10 10 9 9 9 9 8 8 7 7 6 6 6 6 6 6 7 7 7 7 7 7 7 7 8 8 8 8 7 7 7 7 9 10 11 9 7 6 4 3 2 2 2 3 4 5 5 5 5 5 5 6 8 9 9 7 5 4 3 3 3 3 2 2 2 2 3 3 4 4 4 4 4 4 3 3 4 4 4 5 5 6 6 6 6 6 6 6 5 4 3
11 11 11 10 10 10 10 10 10 10 11 10 10 10 10 9 9 9 8 8 8 7 7 7 7 7 7 7 7 7 8 8 8 7 7 7 7 7 7 7 7 7 7 8 9 10 10 9 7 6 5 4 3 2 2 3 5 5 5 5 4 4 4 5 7 8 8 7 5 4 3 2 2 1 1 0 0 0 1 2 2 3 4 4 5 4 4 4 4 3 3 4 4 4 5 5 6 6 6 6 6 6 5
10 9 9 9 9 9 8 9 9 9 10 10 10 10 9 9 9 9 8 8 8 8 7 7 7 7 7 7 8 8 8 8 8 8 8 8 7 7 7 6 7 7 7 8 8 9 9 8 7 6 5 5 4 2 2 3 5 5 5 4 4 3 3 4 5 7 8 7 5 3 2 1 1 0 -0 -1 -1 -1 -1 -0 1 2 3 4 4 5 5 4 4 4 4 4 4 4 4 4 5 5 6 6 6 7 7
8 8 8 7 7 7 7 7 8 8 9 9 9 9 9 9 8 8 8 8 8 8 8 8 8 8 8 8 8 8 8 8 8 8 8 8 8 7 7 7 7 7 7 7 8 8 8 8 7 6 6 5 4 3 2 3 4 5 5 4 3 2 2 2 4 5 6 6 5 3 2 1 1 -0 -1 -1 -1 -2 -1 -1 -0 1 2 3 4 4 5 5 5 5 4 4 4 4 4 4 4 4 5 5 6 6 7
6 6 6 6 6 6 6 6 7 7 7 8 8 8 8 8 8 8 8 8 8 8 8 8 8 8 8 8 8 8 8 8 8 8 8 8 8 8 7 7 7 7 7 7 7 8 8 7 6 6 6 5 4 3 2 2 3 4 4 3 3 2 1 1 2 3 4 5 4 4 2 2 1 0 -0 -1 -1 -1 -1 -1 -0 1 1 2 3 4 4 4 4 4 5 5 5 5 5 5 4 4 4 5 5 5 6
5 5 5 5 5 5 5 5 5 6 6 6 7 7 7 7 7 7 7 7 7 7 7 7 7 7 7 7 7 7 7 7 7 7 7 7 7 7 7 7 7 7 7 7 7 7 7 6 6 6 6 5 4 3 2 2 2 3 3 3 2 2 1 1 1 2 2 3 3 3 3 2 2 1 1 0 0 -0 -0 -0 0 1 1 2 3 3 4 4 4 4 4 4 4 5 5 5 5 5 5 5 4 5 5
4 4 4 4 4 4 4 4 4 4 5 5 5 5 6 6 6 6 6 6 6 6 6 7 7 7 7 7 7 7 7 7 7 6 6 6 6 6 7 7 6 6 6 6 6 6 5 5 5 5 5 5 4 3 2 2 2 3 3 3 2 2 1 1 1 1 1 2 2 2 2 2 2 2 2 1 1 1 0 0 0 0 1 2 3 3 4 4 4 3 3 3 3 4 4 4 5 5 5 5 5 5 4
4 3 3 3 3 3 3 3 3 3 4 4 4 4 5 5 5 5 5 5 5 5 6 6 6 6 6 6 6 6 6 6 6 6 5 5 5 5 5 5 5 5 5 5 5 5 4 4 4 4 4 4 4 3 2 2 3 3 4 4 3 3 2 1 1 1 1 1 1 1 2 2 2 2 2 2 1 1 1 1 0 0 1 2 2 3 4 4 4 3 3 2 2 3 3 4 4 4 5 5 5 5 5
4 4 4 4 3 3 3 3 3 3 3 3 3 4 4 4 4 4 4 4 4 5 5 5 5 5 5 5 5 5 5 5 5 5 5 5 4 4 4 4 4 4 4 4 4 4 4 4 4 4 4 4 4 3 3 3 3 4 4 4 4 3 2 2 2 1 1 1 1 1 1 1 1 1 1 1 1 1 1 1 1 1 1 1 2 3 4 4 4 4 3 2 2 2 2 2 3 4 4 4 5 5 5
5 4 4 4 4 4 4 3 3 3 3 3 3 3 3 4 4 4 4 4 4 4 4 4 4 5 4 4 4 4 5 5 4 4 4 4 4 4 4 4 3 3 3 3 3 3 3 3 3 3 3 4 3 3 3 3 3 4 4 4 4 3 2 2 2 2 2 1 1 1 1 1 1 1 1 1 1 1 1 1 1 1 1 2 2 3 4 5 5 5 4 3 2 1 1 1 2 3 3 4 4 5 5
6 6 5 5 4 4 4 4 4 3 4 4 4 4 4 4 4 3 3 3 3 3 3 3 4 4 4 4 4 4 4 4 4 4 4 4 4 3 3 3 3 3 3 3 3 3 3 3 3 3 3 3 3 3 3 3 4 4 5 4 4 3 2 2 2 2 2 2 2 1 1 1 1 1 1 1 1 1 1 2 2 2 2 2 3 3 4 4 5 5 5 4 3 2 1 1 1 2 3 4 4 4 5
8 7 7 6 6 5 5 5 4 4 4 4 4 4 4 4 4 4 3 3 3 3 3 3 3 3 3 3 3 3 3 3 3 3 3 3 3 3 3 3 3 2 2 2 2 2 2 2 2 2 2 3 3 2 3 3 3 4 5 5 5 4 3 3 2 2 2 2 2 1 1 1 1 1 2 1 1 1 1 2 2 3 3 3 3 3 3 4 4 5 5 5 4 3 2 1 1 1 2 3 4 5 5
8 8 8 7 7 7 6 6 6 6 5 5 4 4 4 4 5 5 5 4 4 4 3 3 3 3 3 3 3 3 3 3 3 3 3 3 3 3 3 2 2 2 2 2 2 2 1 1 2 2 2 2 2 2 2 2 3 3 4 4 4 4 4 3 3 2 2 2 2 2 1 1 1 1 2 2 2 1 1 2 2 3 3 3 3 3 2 3 3 4 5 5 5 5 3 2 1 1 2 3 4 5 5
6 6 7 7 7 7 7 7 7 7 7 6 6 5 5 5 5 5 5 5 5 5 5 4 4 4 3 3 3 3 3 3 3 3 3 2 2 2 2 2 2 2 2 2 1 1 1 1 1 1 1 1 1 1 1 1 2 2 2 2 3 3 3 3 2 2 2 2 2 2 1 1 1 1 2 2 2 2 1 2 2 3 3 3 3 3 2 2 2 2 3 4 5 5 5 3 2 2 2 3 4 5 6
4 5 6 6 6 7 7 7 7 8 8 8 8 7 7 5 5 5 5 5 6 6 6 6 5 5 5 4 4 4 3 3 3 3 3 3 3 3 3 3 2 2 2 2 2 2 2 1 1 1 1 1 1 1 1 1 0 0 0 0 1 1 1 1 1 1 1 1 1 1 1 1 1 1 3 1 1 2 1 2 2 2 3 3 3 3 2 2 2 2 2 3 4 5 5 4 3 2 1 2 3 5 6
4 5 5 5 5 5 5 6 6 6 7 7 8 8 8 7 6 5 5 5 6 6 6 6 6 6 6 6 6 5 5 5 5 5 5 5 5 5 5 4 4 4 4 3 3 3 3 3 2 2 2 2 1 1 1 1 1 1 0 0 0 0 0 -0 -0 -0 0 0 1 1 1 1 1 1 1 0 1 1 1 1 2 2 2 3 3 3 3 2 2 2 2 2 3 4 4 4 3 2 1 1 2 4 5
5 5 5 5 5 5 5 5 5 5 5 6 6 6 7 7 7 6 6 6 6 6 6 6 6 7 7 7 7 7 6 6 6 6 6 6 6 7 7 7 7 6 6 6 6 5 5 5 5 4 4 4 4 4 4 4 4 3 3 3 2 2 2 1 1 1 1 0 0 0 1 1 1 1 1 1 1 1 1 1 1 1 2 2 3 3 3 2 2 2 2 2 3 3 3 3 3 2 1 1 1 2 4
5 5 5 5 5 5 5 5 5 5 5 5 5 5 5 5 6 6 6 6 6 6 6 6 6 6 6 7 7 7 7 7 7 7 7 7 7 7 8 8 8 8 9 9 9 9 8 8 8 8 8 7 7 7 7 7 7 7 6 6 6 5 5 5 4 4 4 3 3 2 2 2 1 1 1 1 1 2 2 2 2 2 1 2 2 2 2 2 2 2 3 3 3 3 3 3 3 2 2 1 0 1 2
4 4 4 4 4 5 5 5 5 5 5 5 5 5 4 4 4 4 5 5 5 5 6 5 5 6 6 6 6 6 7 7 7 7 7 7 7 7 7 7 8 8 9 9 9 10 10 10 10 10 10 10 10 10 10 10 9 9 9 9 8 8 8 8 8 8 7 7 7 6 6 5 5 4 4 5 7 7 4 3 1 1 1 1 2 2 2 2 2 2 3 3 3 3 3 3 3 2 2 1 0 -0 1
3 3 3 3 3 4 4 4 4 5 5 5 5 5 5 5 4 4 4 4 4 4 4 5 5 5 5 5 5 5 6 6 6 6 6 6 6 6 6 6 6 6 7 7 7 8 8 8 9 9 10 10 10 9 9 9 9 9 9 9 9 9 9 9 9 9 10 10 10 9 9 9 9 8 8 9 10 10 7 5 3 3 3 2 2 2 2 2 2 2 3 3 3 3 3 3 3 2 2 1 1 -0 -1
3 3 2 2 2 2 2 2 3 4 4 5 5 5 5 5 5 5 5 4 4 4 4 4 4 4 4 4 4 5 5 5 5 5 5 5 5 5 4 4 4 4 4 4 5 5 5 5 5 6 6 6 6 6 6 6 7 7 8 8 8 8 9 9 9 9 9 10 10 10 10 11 11 11 11 10 8 6 5 6 6 5 5 4 4 4 3 3 3 3 2 3 3 3 3 3 3 2 2 2 1 0 -0
2 2 2 2 1 1 1 1 1 2 2 3 3 4 4 5 5 5 5 5 5 5 5 4 4 4 4 4 4 4 4 4 4 4 4 4 4 4 4 4 4 3 3 3 3 3 3 4 3 3 3 3 3 4 4 4 5 6 6 7 7 7 7 7 7 8 8 8 9 9 9 10 10 10 11 9 7 6 8 9 9 9 8 9 8 7 5 5 4 4 3 4 4 4 3 3 3 2 2 2 1 1 0
1 1 1 1 1 1 1 0 0 0 1 1 2 2 2 3 4 5 5 4 5 5 5 5 5 5 5 4 4 4 4 4 4 4 4 4 4 4 4 4 4 4 3 3 3 3 4 4 4 4 4 4 4 4 4 4 5 5 6 6 6 6 6 6 6 6 6 7 7 7 7 8 8 9 9 9 9 9 10 11 12 12 12 12 11 10 8 7 6 6 6 7 7 6 5 4 3 3 2 2 2 1 1
1 1 1 1 1 0 0 0 0 0 1 1 1 1 1 2 3 3 3 3 3 4 4 5 5 5 5 5 5 5 4 4 4 4 4 4 4 4 4 4 4 4 4 4 4 4 4 4 4 5 5 5 5 5 5 5 5 6 6 6 5 5 5 4 4 4 4 4 4 5 6 6 7 7 8 8 8 9 9 10 11 11 12 10 10 10 11 10 10 9 9 8 8 7 7 6 5 4 3 3 2 2 2
1 1 1 1 1 0 0 0 0 1 1 1 1 2 1 1 1 1 2 2 2 3 4 5 5 5 5 5 5 5 4 4 4 4 4 5 5 5 4 4 4 4 4 4 4 5 5 5 5 5 5 6 6 6 6 5 5 5 5 5 5 5 4 4 4 4 4 4 4 4 5 5 6 7 7 7 7 8 8 9 9 10 11 10 9 10 12 12 11 10 10 7 6 6 6 6 6 5 5 4 3 3 2
1 1 2 1 1 1 1 0 0 1 1 1 2 2 2 1 1 2 2 2 2 3 3 4 5 5 6 6 5 5 5 4 4 5 5 5 5 5 5 5 5 5 5 5 5 5 5 5 5 6 6 6 6 7 6 6 5 5 5 5 5 5 5 4 4 4 4 5 5 5 5 5 6 6 7 7 7 8 8 8 9 9 10 10 10 10 10 10 9 9 8 8 7 6 5 5 6 6 5 5 4 3 3
2 2 2 2 2 2 2 1 1 1 1 2 2 2 2 2 2 2 3 3 3 3 4 4 4 4 5 5 5 5 5 5 5 5 5 5 5 5 4 5 5 5 5 5 4 4 4 4 4 4 5 5 6 7 7 7 6 5 5 5 5 5 5 6 6 6 6 6 6 6 6 6 6 6 7 7 7 8 8 8 8 8 8 9 10 10 10 9 9 9 9 9 10 9 6 6 6 5 5 5 5 4 4
2 3 3 3 4 4 4 3 3 3 2 3 3 3 3 3 3 3 3 4 4 4 4 5 5 5 4 5 5 5 4 5 5 5 4 4 4 3 3 3 3 4 4 4 4 4 3 3 2 2 3 3 4 5 7 8 8 7 6 6 5 5 5 6 7 7 8 8 8 8 7 7 7 7 7 7 7 8 8 8 8 8 8 8 9 9 10 10 10 9 9 9 10 10 8 8 7 7 6 6 6 5 5
4 4 4 4 5 5 5 5 5 4 4 4 4 4 5 5 4 4 4 5 5 5 5 7 7 7 5 5 5 5 5 5 5 5 4 4 3 3 3 2 2 2 3 3 3 3 3 2 2 2 2 3 3 4 6 8 9 9 9 8 7 7 6 7 7 8 8 8 8 8 8 8 8 8 8 8 8 8 8 8 8 8 8 8 8 9 9 10 10 10 9 7 8 9 10 9 9 9 9 9 8 7 6
5 5 5 5 6 6 6 6 6 6 6 6 6 6 6 7 6 6 6 6 6 6 7 8 8 8 8 7 7 6 6 6 6 6 5 5 4 3 3 3 2 2 2 2 3 3 3 3 2 2 3 4 5 6 7 7 8 9 10 9 9 8 8 8 8 8 8 8 8 8 8 8 9 9 9 9 8 8 8 8 8 8 8 8 8 8 9 9 10 10 9 8 8 9 10 10 9 9 10 10 9 9 8
6 6 6 6 6 7 7 7 7 7 7 7 7 7 7 8 8 8 8 7 7 7 8 8 9 9 9 8 8 7 7 6 6 6 6 5 4 4 4 4 3 3 3 3 3 3 3 3 2 2 4 5 7 8 8 7 6 6 8 9 10 11 11 11 11 10 9 9 9 9 9 9 9 10 10 9 9 9 8 8 8 8 8 8 8 8 9 9 9 9 10 10 10 9 9 10 9 8 8 8 9 9 9
7 7 7 7 7 7 7 7 8 8 8 8 8 8 8 8 9 9 9 9 8 8 8 9 9 9 9 9 8 8 8 7 6 6 6 5 5 4 4 4 4 4 4 4 4 3 3 2 2 2 4 6 7 7 8 7 6 5 6 8 10 11 13 14 14 14 14 14 14 14 13 12 12 12 12 11 11 10 10 9 8 8 8 8 8 8 8 8 8 8 9 9 9 9 8 9 9 8 8 8 8 9 9
8 8 8 7 7 7 7 7 8 8 9 9 9 8 8 8 8 9 9 9 9 9 8 8 9 9 9 9 8 8 8 8 7 6 6 6 5 5 5 5 4 4 4 4 4 4 3 2 2 2 3 4 3 2 3 3 3 5 7 9 9 10 11 11 11 11 13 14 14 14 13 13 13 14 14 14 14 13 11 11 10 9 9 9 9 8 8 8 8 7 8 8 8 8 8 8 8 9 9 9 9 9 10
8 8 8 8 8 8 8 8 8 8 8 9 9 9 9 8 8 8 9 9 9 9 8 8 8 8 8 8 8 9 8 8 7 7 7 6 6 6 6 5 5 4 4 4 4 4 3 2 2 3 3 2 0 -1 -1 -0 1 4 7 10 12 12 11 8 6 5 4 5 6 8 10 11 12 13 14 14 14 13 13 12 11 11 10 10 9 9 8 8 7 7 7 7 7 8 8 8 8 8 8 9 9 10 10
9 9 9 9 9 9 9 8 8 7 7 8 8 9 9 8 8 8 8 8 8 8 7 7 7 7 7 8 8 8 8 8 7 7 7 7 7 7 6 5 5 5 4 4 4 3 3 2 3 3 3 2 1 1 1 2 3 4 7 9 11 12 11 10 8 5 3 2 2 3 5 7 9 10 11 13 13 13 13 13 12 11 11 10 10 9 8 8 7 7 6 6 7 7 7 7 8 8 8 8 9 10 10
10 10 9 9 9 9 9 9 9 8 7 7 7 8 8 8 8 8 8 8 7 7 7 7 7 7 7 7 7 7 6 7 7 7 7 7 7 7 6 6 5 5 5 4 4 4 3 3 3 4 4 4 4 4 4 4 5 7 8 7 6 7 8 9 10 9 8 6 5 4 3 3 4 6 8 9 10 11 12 12 11 10 10 11 11 10 9 9 8 7 6 6 6 6 7 7 7 8 8 9 9 9 10
11 11 11 10 10 10 10 10 10 9 8 7 7 7 8 8 8 8 8 8 8 7 7 6 6 6 6 6 6 6 6 6 6 6 7 6 6 6 7 6 6 5 5 5 5 5 5 5 5 5 5 5 5 5 5 6 8 9 9 4 2 1 3 6 8 9 10 10 9 8 6 5 5 6 7 7 8 9 9 10 10 10 11 11 12 12 12 11 10 8 7 7 6 6 6 7 7 7 7 9 9 8 9
12 11 11 11 11 11 11 12 12 11 10 9 8 8 7 8 8 8 8 9 9 8 7 7 7 6 5 6 6 6 6 6 6 6 6 6 6 6 6 6 6 7 6 6 6 5 5 6 6 6 6 5 6 6 6 7 8 8 7 5 3 1 2 2 4 5 8 9 9 9 9 9 8 9 10 12 11 9 8 10 12 13 14 13 13 13 13 13 12 10 9 8 7 7 6 6 6 6 6 8 8 8 8
11 11 11 11 11 11 11 12 12 13 12 11 10 9 8 7 8 8 8 9 10 9 8 8 8 8 7 7 7 7 7 7 7 7 6 7 7 6 6 7 7 8 7 7 7 7 5 6 6 6 7 6 6 7 7 7 7 6 5 5 5 4 2 1 0 1 3 6 7 8 9 8 7 6 6 7 7 7 8 10 13 15 17 16 15 14 14 13 13 11 10 9 8 7 7 7 6 6 6 7 8 8 8
9 9 9 9 9 9 9 10 11 11 12 12 11 10 9 8 7 7 8 9 10 10 10 9 9 9 10 9 9 9 8 8 8 8 8 8 8 8 8 8 8 8 7 7 8 8 8 7 7 7 7 7 7 7 7 7 7 7 5 4 5 5 3 1 1 1 3 4 5 6 7 6 4 1 0 -0 1 3 8 9 10 12 16 16 15 14 13 12 11 11 10 9 9 8 8 7 7 7 7 7 7 7 8
6 6 6 6 6 6 6 7 8 8 9 10 10 10 10 8 7 7 7 8 8 9 10 9 9 8 9 10 9 9 9 9 9 9 10 9 9 9 10 9 9 8 8 8 9 9 9 8 7 8 8 8 8 8 8 7 7 7 7 7 6 5 3 4 4 4 6 6 6 6 7 7 6 4 3 1 1 3 8 10 12 13 15 14 13 12 10 9 8 8 8 8 8 8 8 8 8 8 7 7 7 7 7
4 4 4 4 4 4 5 5 5 6 6 7 8 8 8 7 6 6 6 6 6 7 9 9 8 7 7 8 9 9 9 9 9 9 10 10 10 10 10 10 10 10 10 10 10 9 9 8 8 9 10 9 8 9 9 8 8 8 8 8 7 6 6 4 3 2 3 5 6 7 9 11 11 11 11 9 7 6 8 10 11 12 13 11 9 8 6 4 3 4 5 6 7 8 9 9 8 8 7 7 7 7 7
4 4 4 4 4 4 4 4 4 4 4 5 5 6 6 5 5 4 4 5 5 5 6 8 8 7 6 7 8 8 8 9 9 9 9 10 10 10 10 10 10 10 10 10 10 10 10 8 10 12 13 10 9 9 9 9 8 8 8 8 7 7 7 6 4 2 1 1 2 2 3 6 8 10 12 11 10 8 6 5 5 7 9 8 7 6 4 2 1 1 1 3 5 8 9 10 9 9 8 7 6 6 6
5 5 5 4 4 4 4 4 4 4 4 4 4 4 5 4 4 4 4 4 4 4 5 6 7 7 6 6 6 7 7 7 8 8 8 9 9 9 9 10 10 10 9 8 9 9 10 10 11 11 10 11 11 10 9 9 9 9 8 8 8 8 8 8 8 6 4 1 -1 -2 -3 -2 -1 1 4 6 7 5 0 -1 -1 0 1 4 5 6 5 4 3 2 2 3 4 7 9 10 10 10 9 8 7 6 6
6 6 6 6 5 5 5 4 4 5 5 5 5 5 6 6 6 6 5 5 5 5 5 5 5 6 6 5 6 6 6 6 6 7 7 7 8 8 8 8 9 10 10 10 9 8 7 10 11 10 7 10 12 12 10 9 9 9 9 9 8 8 9 9 10 10 8 7 4 2 -1 -3 -4 -4 -2 1 2 1 -3 -5 -6 -6 -4 -2 1 4 6 7 8 8 7 6 6 7 9 10 11 10 10 8 8 7 7
7 7 7 7 7 7 6 5 5 5 6 6 7 7 8 8 8 8 7 7 7 6 6 6 6 6 6 6 6 5 5 5 5 6 6 7 8 8 8 8 8 9 9 10 10 10 8 9 9 9 8 8 9 10 10 9 9 8 9 9 9 9 9 9 9 10 10 10 9 8 7 5 3 1 1 1 1 -0 -1 -2 -3 -4 -4 -3 -1 1 3 6 8 10 11 11 10 9 8 9 9 9 9 9 8 8 8
8 8 9 9 9 9 8 7 7 7 7 7 8 9 9 9 9 9 9 9 9 9 9 8 8 8 7 7 7 7 6 6 5 5 5 6 7 8 8 8 8 8 8 8 9 9 10 10 9 8 9 8 6 6 8 9 9 8 8 8 9 9 9 9 9 9 9 9 10 10 10 9 9 8 6 3 2 2 2 2 1 -0 -1 -1 -0 0 1 2 4 7 10 12 12 10 9 7 6 6 7 7 8 8 8
8 9 10 10 11 11 10 10 9 8 8 8 9 9 10 9 9 10 10 10 10 10 10 10 10 10 10 9 9 9 8 7 7 6 5 6 7 8 8 8 8 8 8 8 8 8 9 9 9 9 9 9 8 8 7 8 8 8 9 8 8 8 8 8 8 8 8 9 9 9 9 8 8 8 8 6 4 2 1 1 0 0 0 0 -0 -1 -2 -2 -1 2 5 8 10 11 9 7 5 4 4 5 6 7 8
Height
5847 5847 5847 5847 5847 5847 5847 5847 5847 5847 5848 5848 5848 5848 5848 5848 5848 5848 5848 5849 5849 5849 5849 5849 5849 5849 5849 5849 5849 5849 5849 5849 5849 5850 5850 5849 5849 5849 5849 5849 5849 5849 5850 5850 5850 5850 5850 5850 5849 5849 5849 5850 5850 5850 5851 5851 5851 5852 5852 5852 5851 5852 5852 5853 5853 5853 5853 5853 5853 5853 5854 5854 5854 5854 5854 5855 5855 5855 5855 5855 5856 5856 5856 5857 5857 5857 5857 5858 5858 5858 5859 5859 5859 5860 5860 5860 5860 5860 5861 5861 5862 5862 5863
5845 5845 5845 5845 5845 5845 5845 5845 5845 5846 5846 5846 5846 5846 5846 5846 5847 5847 5847 5847 5847 5847 5847 5848 5848 5848 5848 5848 5848 5848 5848 5848 5848 5848 5848 5848 5848 5848 5848 5848 5848 5848 5848 5848 5849 5849 5848 5848 5848 5848 5848 5848 5849 5849 5850 5850 5850 5851 5851 5851 5851 5851 5851 5851 5852 5852 5852 5852 5852 5852 5852 5853 5853 5853 5853 5853 5854 5854 5854 5854 5855 5855 5855 5855 5856 5856 5856 5857 5857 5857 5857 5858 5858 5858 5859 5859 5859 5860 5860 5860 5861 5861 5862
5843 5843 5843 5843 5843 5844 5844 5844 5844 5844 5844 5844 5844 5845 5845 5845 5845 5845 5845 5845 5845 5845 5846 5846 5846 5846 5846 5846 5846 5846 5846 5846 5846 5846 5846 5846 5846 5846 5846 5846 5846 5846 5846 5847 5847 5847 5847 5847 5847 5847 5847 5847 5847 5848 5848 5849 5850 5850 5850 5850 5850 5850 5850 5850 5850 5851 5851 5851 5851 5851 5851 5852 5852 5852 5852 5852 5852 5853 5853 5853 5853 5854 5854 5855 5855 5855 5855 5855 5856 5856 5857 5857 5857 5857 5858 5858 5858 5858 5859 5859 5860 5860 5861
5841 5841 5841 5841 5841 5841 5841 5842 5842 5842 5842 5842 5842 5843 5843 5843 5843 5843 5843 5844 5844 5844 5844 5844 5844 5845 5845 5845 5845 5845 5845 5845 5845 5845 5845 5845 5845 5845 5845 5845 5845 5845 5845 5845 5845 5846 5846 5846 5845 5845 5845 5845 5846 5846 5847 5848 5848 5849 5849 5849 5849 5849 5849 5849 5849 5850 5850 5850 5850 5850 5850 5851 5851 5851 5851 5851 5851 5851 5852 5852 5852 5853 5853 5853 5854 5854 5854 5855 5855 5855 5855 5856 5856 5856 5857 5857 5857 5857 5858 5858 5859 5859 5860
5840 5840 5840 5840 5840 5840 5840 5840 5840 5840 5840 5840 5840 5841 5841 5841 5841 5841 5842 5842 5842 5842 5842 5842 5843 5843 5843 5843 5843 5843 5843 5843 5843 5843 5843 5843 5843 5843 5843 5844 5844 5843 5844 5844 5844 5844 5845 5845 5845 5844 5844 5845 5845 5845 5846 5846 5847 5848 5848 5848 5848 5848 5848 5848 5849 5849 5848 5849 5849 5849 5850 5850 5850 5850 5850 5850 5850 5850 5851 5851 5851 5851 5852 5852 5853 5853 5853 5854 5854 5854 5855 5855 5855 5855 5856 5856 5856 5856 5857 5857 5857 5858 5859
5838 5838 5838 5838 5839 5839 5838 5838 5838 5838 5838 5838 5839 5839 5839 5839 5839 5840 5840 5840 5840 5840 5840 5840 5841 5841 5841 5841 5841 5841 5841 5841 5841 5841 5841 5841 5841 5842 5842 5842 5842 5842 5842 5842 5842 5843 5843 5843 5843 5843 5843 5843 5844 5844 5845 5845 5846 5846 5847 5847 5847 5847 5847 5847 5848 5848 5847 5848 5848 5849 5849 5849 5849 5849 5849 5850 5850 5850 5850 5850 5850 5850 5851 5851 5851 5852 5852 5852 5853 5853 5853 5854 5854 5855 5855 5855 5855 5855 5856 5856 5856 5857 5857
5836 5836 5836 5836 5837 5838 5836 5836 5836 5836 5836 5836 5836 5837 5837 5837 5837 5838 5838 5838 5838 5838 5838 5839 5839 5839 5839 5839 5839 5839 5840 5840 5840 5839 5840 5840 5840 5840 5840 5841 5841 5841 5841 5841 5841 5841 5842 5842 5842 5842 5842 5842 5843 5843 5844 5844 5845 5845 5845 5845 5845 5845 5845 5846 5846 5846 5847 5847 5847 5847 5848 5848 5848 5848 5849 5849 5849 5849 5849 5849 5849 5850 5850 5850 5850 5851 5851 5851 5852 5852 5852 5853 5853 5854 5854 5854 5854 5855 5855 5855 5855 5856 5856
5834 5834 5834 5835 5835 5835 5835 5834 5834 5835 5835 5834 5835 5835 5835 5835 5835 5835 5836 5836 5836 5836 5836 5837 5837 5837 5837 5837 5838 5838 5838 5838 5838 5838 5838 5838 5838 5838 5839 5839 5839 5839 5840 5840 5840 5840 5840 5841 5841 5841 5841 5841 5841 5842 5842 5843 5844 5844 5844 5844 5844 5844 5844 5845 5845 5845 5846 5846 5846 5846 5847 5847 5847 5847 5848 5848 5848 5848 5848 5848 5848 5849 5849 5849 5850 5850 5850 5850 5851 5851 5851 5852 5852 5852 5853 5853 5853 5854 5854 5854 5855 5855 5855
5832 5832 5832 5832 5832 5832 5832 5832 5832 5833 5833 5833 5833 5833 5833 5833 5833 5834 5834 5834 5834 5834 5835 5835 5835 5835 5836 5836 5836 5836 5836 5836 5836 5836 5836 5836 5836 5837 5837 5838 5838 5838 5838 5838 5839 5839 5839 5840 5840 5840 5840 5840 5840 5841 5841 5842 5842 5843 5843 5843 5843 5843 5843 5844 5844 5844 5845 5845 5845 5845 5845 5846 5846 5846 5846 5847 5847 5847 5847 5847 5847 5848 5848 5848 5848 5849 5849 5850 5850 5850 5850 5851 5851 5851 5852 5852 5852 5853 5853 5853 5854 5854 5854
5830 5830 5830 5830 5830 5830 5830 5830 5830 5830 5830 5831 5831 5831 5831 5831 5831 5832 5832 5832 5832 5832 5833 5833 5833 5834 5834 5834 5834 5834 5834 5834 5835 5835 5835 5835 5835 5835 5835 5836 5836 5836 5837 5837 5837 5837 5838 5838 5838 5838 5839 5839 5839 5840 5840 5840 5841 5841 5841 5842 5842 5842 5842 5842 5843 5843 5843 5843 5844 5844 5844 5844 5845 5845 5845 5845 5846 5846 5846 5846 5847 5847 5847 5847 5847 5848 5848 5848 5849 5849 5850 5850 5850 5850 5851 5851 5851 5852 5852 5852 5853 5853 5853
5828 5828 5828 5828 5828 5828 5828 5828 5828 5828 5828 5828 5829 5829 5829 5829 5830 5830 5830 5830 5830 5830 5831 5831 5831 5832 5832 5832 5832 5832 5832 5833 5833 5833 5833 5833 5833 5833 5834 5834 5835 5835 5835 5835 5835 5836 5836 5836 5837 5837 5837 5837 5838 5838 5839 5839 5840 5840 5840 5840 5841 5841 5841 5841 5841 5842 5842 5842 5842 5843 5843 5843 5844 5844 5844 5845 5845 5845 5845 5845 5846 5846 5846 5846 5846 5847 5847 5847 5848 5848 5848 5849 5849 5850 5850 5850 5850 5850 5851 5851 5852 5852 5852
5825 5825 5826 5826 5826 5825 5826 5826 5826 5826 5826 5826 5826 5827 5827 5827 5828 5828 5828 5828 5829 5829 5829 5829 5830 5830 5830 5830 5830 5830 5831 5831 5831 5831 5831 5831 5832 5832 5832 5832 5833 5833 5834 5834 5834 5835 5835 5835 5835 5835 5836 5836 5836 5837 5837 5838 5838 5838 5839 5839 5839 5840 5840 5840 5840 5840 5841 5841 5841 5841 5842 5842 5842 5843 5843 5843 5844 5844 5844 5845 5845 5845 5845 5845 5845 5846 5846 5846 5847 5847 5847 5848 5848 5848 5849 5849 5849 5850 5850 5850 5850 5851 5851
5823 5823 5823 5823 5823 5823 5823 5824 5824 5824 5824 5824 5825 5825 5825 5825 5826 5826 5826 5826 5827 5827 5827 5827 5828 5828 5828 5829 5829 5829 5829 5829 5829 5830 5830 5830 5830 5830 5830 5831 5831 5831 5832 5832 5832 5833 5833 5833 5834 5834 5834 5835 5835 5835 5836 5836 5836 5836 5837 5837 5838 5838 5838 5839 5839 5839 5840 5840 5840 5840 5840 5841 5841 5841 5842 5842 5842 5843 5843 5843 5844 5844 5844 5844 5845 5845 5845 5845 5845 5846 5846 5847 5847 5847 5848 5848 5848 5848 5849 5849 5850 5850 5850
5821 5821 5821 5821 5821 5821 5821 5821 5822 5822 5822 5823 5823 5823 5823 5824 5824 5824 5825 5825 5825 5825 5825 5825 5825 5826 5826 5826 5827 5827 5827 5827 5828 5828 5828 5828 5829 5829 5829 5829 5830 5830 5830 5830 5831 5831 5831 5832 5832 5832 5833 5833 5833 5834 5834 5835 5835 5835 5835 5836 5836 5837 5837 5837 5838 5838 5838 5839 5839 5839 5839 5840 5840 5840 5840 5841 5841 5841 5842 5842 5842 5843 5843 5843 5843 5844 5844 5844 5845 5845 5845 5845 5846 5846 5846 5847 5847 5847 5848 5848 5848 5849 5849
5819 5819 5819 5819 5819 5819 5819 5820 5820 5820 5820 5821 5821 5821 5821 5821 5822 5822 5822 5823 5823 5823 5823 5823 5824 5824 5824 5825 5825 5825 5825 5825 5826 5826 5826 5827 5827 5827 5827 5828 5828 5828 5828 5829 5829 5829 5830 5830 5830 5831 5831 5831 5832 5832 5833 5833 5833 5833 5834 5834 5835 5835 5835 5836 5836 5837 5837 5837 5838 5838 5838 5839 5839 5839 5839 5840 5840 5840 5841 5841 5841 5841 5842 5842 5842 5842 5843 5843 5843 5844 5844 5844 5845 5845 5845 5845 5846 5846 5846 5847 5847 5847 5848
5816 5816 5816 5816 5816 5817 5817 5817 5818 5818 5818 5819 5819 5819 5819 5819 5820 5820 5820 5820 5821 5821 5821 5821 5821 5822 5822 5823 5823 5823 5823 5824 5824 5825 5825 5825 5825 5825 5826 5826 5826 5826 5827 5827 5827 5828 5828 5829 5829 5829 5830 5830 5830 5831 5831 5831 5831 5832 5832 5833 5833 5834 5834 5835 5835 5835 5836 5836 5836 5837 5837 5837 5838 5838 5838 5838 5839 5839 5840 5840 5840 5840 5840 5841 5841 5841 5841 5842 5842 5842 5843 5843 5843 5844 5844 5844 5845 5845 5845 5845 5846 5846 5846
5814 5814 5814 5814 5814 5815 5815 5815 5815 5816 5816 5816 5817 5817 5817 5817 5817 5818 5818 5818 5819 5819 5819 5819 5820 5820 5820 5820 5821 5821 5821 5822 5822 5823 5823 5823 5824 5824 5824 5825 5825 5825 5825 5825 5825 5826 5826 5827 5827 5828 5828 5829 5829 5830 5830 5830 5830 5830 5830 5831 5831 5832 5833 5833 5834 5834 5834 5835 5835 5835 5836 5836 5836 5836 5837 5837 5838 5838 5838 5839 5839 5839 5839 5840 5840 5840 5840 5840 5841 5841 5841 5842 5842 5842 5843 5843 5843 5844 5844 5844 5845 5845 5845
5812 5812 5812 5812 5812 5812 5813 5813 5813 5814 5814 5814 5815 5815 5815 5815 5815 5815 5815 5816 5816 5817 5817 5817 5817 5818 5818 5818 5819 5819 5819 5820 5820 5821 5821 5821 5822 5822 5823 5823 5823 5823 5823 5824 5824 5825 5825 5825 5826 5826 5827 5827 5828 5828 5828 5829 5829 5829 5829 5830 5830 5830 5831 5831 5832 5832 5833 5833 5834 5834 5834 5835 5835 5835 5835 5836 5836 5837 5837 5837 5838 5838 5838 5839 5839 5839 5839 5839 5840 5840 5840 5840 5840 5841 5841 5842 5842 5842 5843 5843 5843 5844 5844
5810 5810 5810 5810 5810 5810 5810 5810 5811 5811 5812 5812 5812 5812 5813 5813 5813 5813 5813 5814 5814 5814 5815 5815 5815 5815 5816 5816 5816 5817 5817 5818 5818 5819 5819 5820 5820 5820 5821 5821 5822 5822 5822 5822 5822 5823 5823 5824 5824 5825 5825 5825 5826 5827 5827 5827 5827 5827 5828 5828 5828 5829 5830 5830 5830 5831 5831 5832 5832 5832 5833 5833 5833 5834 5834 5834 5835 5835 5835 5836 5836 5837 5837 5837 5837 5838 5838 5838 5838 5839 5839 5839 5839 5840 5840 5840 5840 5841 5841 5842 5842 5842 5843
5807 5807 5807 5808 5808 5808 5808 5808 5808 5809 5809 5810 5810 5810 5810 5810 5810 5811 5811 5811 5812 5812 5812 5813 5813 5813 5814 5814 5814 5815 5815 5815 5816 5817 5817 5818 5818 5819 5819 5820 5820 5820 5820 5820 5821 5821 5822 5822 5823 5823 5823 5824 5825 5825 5825 5825 5826 5826 5826 5826 5827 5827 5828 5828 5829 5829 5830 5830 5830 5831 5831 5831 5832 5832 5832 5833 5833 5834 5834 5834 5835 5835 5835 5836 5836 5836 5836 5837 5837 5837 5837 5838 5838 5838 5839 5839 5839 5840 5840 5840 5840 5841 5841
5805 5805 5805 5805 5805 5805 5805 5805 5806 5806 5807 5807 5807 5808 5808 5808 5808 5809 5809 5809 5809 5810 5810 5810 5811 5811 5811 5811 5812 5812 5813 5813 5814 5815 5815 5815 5816 5817 5817 5818 5818 5818 5818 5819 5819 5820 5820 5820 5820 5821 5821 5822 5823 5823 5824 5824 5824 5824 5825 5825 5825 5826 5826 5826 5827 5827 5828 5828 5829 5829 5830 5830 5830 5830 5830 5831 5831 5832 5832 5833 5833 5833 5834 5834 5835 5835 5835 5835 5835 5836 5836 5836 5836 5837 5837 5837 5838 5838 5839 5839 5839 5840 5840
5803 5803 5803 5803 5803 5803 5803 5803 5803 5804 5804 5805 5805 5805 5805 5806 5806 5806 5806 5806 5807 5807 5808 5808 5808 5809 5809 5809 5810 5810 5810 5811 5811 5812 5813 5813 5814 5815 5815 5815 5816 5816 5816 5817 5817 5817 5818 5818 5818 5819 5819 5820 5820 5821 5822 5822 5822 5822 5823 5823 5824 5824 5825 5825 5825 5825 5826 5826 5827 5827 5828 5828 5828 5829 5829 5829 5830 5830 5830 5831 5831 5831 5832 5832 5833 5833 5834 5834 5834 5834 5835 5835 5835 5835 5835 5836 5836 5837 5837 5837 5838 5838 5839
5801 5801 5801 5801 5800 5800 5800 5800 5801 5801 5801 5802 5802 5803 5803 5803 5804 5804 5804 5804 5804 5805 5805 5806 5806 5806 5807 5807 5807 5807 5808 5808 5809 5810 5810 5811 5811 5812 5813 5813 5814 5814 5814 5815 5815 5815 5815 5816 5816 5816 5817 5818 5819 5819 5820 5820 5820 5820 5821 5821 5822 5822 5823 5823 5823 5824 5824 5825 5825 5825 5826 5826 5826 5827 5827 5827 5828 5828 5829 5829 5829 5830 5830 5830 5831 5831 5832 5832 5832 5833 5833 5833 5833 5834 5834 5834 5835 5835 5835 5836 5836 5837 5837
5799 5799 5799 5799 5798 5798 5798 5798 5799 5799 5799 5799 5800 5800 5800 5801 5801 5801 5801 5802 5802 5802 5803 5803 5804 5804 5804 5805 5805 5805 5805 5806 5806 5807 5808 5808 5809 5810 5810 5811 5811 5812 5812 5812 5813 5813 5813 5813 5814 5814 5815 5815 5816 5817 5818 5819 5819 5819 5819 5819 5820 5820 5820 5821 5821 5822 5822 5822 5823 5823 5824 5824 5825 5825 5825 5825 5826 5826 5827 5827 5827 5827 5828 5829 5829 5830 5830 5830 5830 5831 5831 5832 5832 5832 5832 5833 5833 5833 5834 5834 5835 5835 5835
5796 5796 5796 5796 5796 5796 5796 5796 5796 5796 5796 5797 5797 5797 5798 5798 5798 5799 5799 5799 5799 5800 5800 5801 5801 5801 5802 5802 5802 5802 5803 5803 5804 5804 5805 5806 5806 5807 5808 5808 5809 5809 5810 5810 5810 5810 5810 5811 5811 5811 5812 5813 5814 5815 5816 5816 5816 5816 5816 5817 5817 5818 5819 5819 5819 5820 5820 5820 5820 5821 5821 5822 5822 5823 5823 5823 5824 5824 5825 5825 5825 5825 5826 5826 5827 5827 5828 5828 5829 5829 5830 5830 5830 5830 5831 5831 5831 5832 5832 5832 5833 5833 5834
5794 5794 5794 5794 5794 5794 5794 5794 5794 5795 5794 5794 5795 5795 5795 5795 5795 5796 5796 5796 5797 5797 5797 5798 5798 5799 5799 5800 5800 5800 5800 5800 5801 5801 5802 5803 5804 5805 5805 5805 5806 5806 5807 5808 5808 5808 5808 5808 5808 5809 5809 5810 5811 5812 5813 5814 5814 5814 5814 5814 5815 5815 5816 5817 5817 5817 5818 5818 5819 5819 5819 5820 5820 5820 5821 5821 5821 5822 5823 5823 5823 5823 5824 5824 5825 5825 5825 5826 5826 5827 5827 5828 5828 5829 5829 5830 5830 5830 5830 5831 5831 5831 5832
5790 5791 5791 5791 5791 5791 5792 5792 5792 5792 5792 5792 5792 5792 5792 5792 5793 5793 5793 5794 5794 5795 5795 5795 5795 5796 5796 5797 5797 5797 5797 5798 5798 5798 5799 5800 5801 5802 5802 5803 5804 5804 5805 5805 5806 5806 5806 5806 5806 5806 5806 5807 5808 5809 5810 5811 5811 5811 5811 5812 5812 5813 5813 5814 5815 5815 5815 5816 5816 5817 5817 5818 5818 5818 5819 5819 5819 5820 5820 5821 5821 5821 5822 5822 5823 5823 5824 5824 5824 5825 5825 5826 5826 5827 5827 5828 5828 5828 5829 5829 5829 5830 5830
5788 5788 5788 5789 5789 5789 5789 5789 5790 5790 5790 5790 5790 5790 5790 5790 5790 5790 5790 5791 5791 5792 5792 5792 5793 5793 5794 5794 5794 5795 5795 5795 5795 5795 5796 5797 5797 5799 5800 5800 5801 5801 5802 5802 5803 5803 5803 5803 5803 5803 5804 5804 5805 5806 5807 5808 5809 5809 5809 5809 5809 5810 5810 5811 5812 5813 5813 5814 5814 5815 5815 5815 5815 5816 5817 5817 5817 5817 5818 5818 5819 5819 5820 5820 5820 5821 5821 5822 5822 5822 5823 5823 5824 5825 5825 5825 5826 5826 5827 5827 5827 5828 5828
5785 5785 5785 5786 5786 5786 5786 5786 5787 5787 5787 5788 5788 5788 5788 5788 5788 5788 5788 5788 5788 5789 5789 5790 5790 5790 5790 5791 5791 5791 5792 5792 5792 5793 5793 5794 5794 5795 5796 5797 5798 5799 5799 5800 5800 5800 5801 5800 5800 5800 5801 5801 5802 5803 5804 5805 5805 5806 5806 5806 5806 5807 5807 5808 5809 5810 5810 5811 5811 5812 5812 5813 5813 5814 5814 5814 5815 5815 5815 5816 5816 5817 5817 5818 5818 5819 5819 5820 5820 5820 5820 5821 5821 5822 5823 5823 5824 5824 5825 5825 5825 5826 5826
5782 5783 5783 5783 5783 5783 5784 5784 5784 5784 5785 5785 5785 5785 5785 5785 5785 5785 5785 5785 5786 5786 5786 5786 5787 5787 5787 5788 5788 5789 5789 5789 5789 5790 5790 5790 5791 5792 5793 5794 5795 5795 5796 5797 5797 5798 5798 5798 5798 5798 5798 5798 5799 5800 5800 5801 5802 5802 5803 5803 5803 5804 5804 5805 5805 5806 5807 5808 5808 5809 5810 5810 5810 5811 5811 5812 5812 5813 5813 5813 5814 5815 5815 5815 5816 5817 5817 5817 5818 5818 5818 5819 5819 5819 5820 5820 5821 5822 5822 5823 5823 5824 5824
5780 5780 5780 5780 5780 5780 5780 5781 5781 5781 5782 5782 5782 5782 5783 5783 5783 5783 5783 5783 5783 5783 5784 5784 5784 5784 5785 5785 5785 5785 5786 5786 5786 5787 5787 5788 5788 5789 5790 5790 5791 5792 5793 5793 5794 5795 5795 5795 5795 5795 5795 5795 5796 5796 5797 5798 5799 5799 5800 5800 5800 5800 5800 5801 5802 5802 5803 5804 5805 5805 5806 5807 5808 5808 5809 5809 5810 5810 5810 5811 5812 5812 5812 5813 5814 5814 5815 5815 5815 5815 5816 5816 5816 5817 5817 5818 5818 5819 5820 5820 5821 5821 5822
5776 5776 5777 5777 5777 5777 5777 5778 5778 5779 5779 5779 5779 5779 5779 5780 5780 5780 5780 5780 5780 5780 5781 5781 5781 5781 5781 5782 5782 5783 5783 5783 5784 5784 5784 5785 5785 5785 5786 5787 5788 5789 5790 5790 5791 5791 5792 5792 5792 5792 5792 5792 5792 5793 5794 5795 5795 5796 5796 5796 5797 5797 5797 5797 5798 5799 5799 5800 5801 5802 5803 5804 5804 5805 5806 5806 5807 5807 5807 5807 5810 5811 5810 5810 5811 5811 5812 5813 5813 5813 5813 5813 5814 5814 5815 5815 5815 5816 5817 5817 5818 5819 5820
5773 5773 5773 5774 5774 5774 5774 5775 5775 5775 5776 5776 5776 5776 5776 5777 5777 5777 5777 5777 5777 5778 5778 5778 5778 5778 5779 5779 5780 5780 5780 5780 5781 5781 5781 5782 5782 5782 5783 5784 5785 5785 5786 5787 5788 5788 5789 5789 5790 5790 5790 5790 5790 5790 5790 5791 5792 5793 5793 5793 5794 5794 5794 5794 5795 5795 5795 5796 5797 5798 5799 5800 5800 5802 5803 5803 5804 5805 5806 5805 5805 5806 5807 5807 5808 5809 5810 5810 5810 5810 5810 5811 5811 5811 5812 5812 5813 5813 5814 5815 5815 5816 5817
5770 5770 5770 5770 5770 5770 5771 5771 5771 5772 5772 5773 5773 5773 5774 5774 5774 5774 5774 5774 5774 5775 5775 5775 5775 5775 5776 5776 5776 5777 5777 5777 5778 5778 5778 5779 5779 5779 5780 5780 5781 5782 5783 5784 5785 5785 5785 5786 5787 5788 5788 5787 5787 5787 5787 5788 5789 5789 5790 5790 5790 5791 5791 5791 5791 5792 5792 5793 5793 5794 5795 5796 5797 5798 5799 5799 5801 5802 5802 5802 5802 5803 5804 5804 5805 5805 5806 5807 5807 5807 5808 5808 5808 5809 5809 5810 5810 5810 5811 5812 5812 5813 5814
5766 5767 5767 5767 5767 5767 5767 5767 5768 5768 5769 5769 5770 5770 5770 5770 5770 5770 5771 5771 5771 5771 5771 5772 5772 5772 5773 5773 5773 5774 5774 5774 5775 5775 5775 5775 5776 5776 5776 5777 5778 5779 5780 5780 5781 5782 5782 5783 5784 5784 5785 5785 5784 5784 5784 5785 5785 5786 5786 5787 5787 5788 5788 5788 5788 5789 5789 5789 5790 5790 5791 5792 5793 5794 5795 5795 5797 5799 5798 5798 5799 5800 5801 5801 5802 5803 5803 5804 5804 5804 5805 5805 5805 5806 5806 5807 5807 5808 5808 5809 5809 5810 5811
5763 5763 5763 5763 5763 5764 5764 5764 5764 5765 5765 5765 5766 5766 5766 5767 5767 5767 5767 5767 5768 5768 5768 5769 5769 5769 5770 5770 5770 5770 5771 5771 5771 5771 5772 5772 5773 5773 5773 5774 5774 5775 5776 5777 5778 5778 5779 5780 5780 5780 5781 5781 5781 5781 5781 5781 5782 5782 5783 5784 5784 5784 5785 5785 5785 5785 5786 5786 5787 5787 5787 5788 5789 5790 5791 5792 5792 5793 5794 5795 5797 5798 5797 5798 5800 5800 5800 5800 5800 5801 5801 5802 5802 5802 5803 5804 5804 5805 5805 5806 5806 5807 5808
5759 5759 5759 5760 5760 5760 5760 5760 5760 5761 5761 5762 5762 5762 5763 5764 5765 5764 5763 5764 5764 5765 5765 5765 5766 5766 5766 5766 5767 5767 5767 5768 5768 5768 5769 5769 5770 5770 5770 5770 5771 5771 5772 5773 5774 5775 5775 5776 5777 5777 5778 5778 5778 5778 5778 5778 5778 5779 5779 5780 5780 5781 5781 5782 5782 5782 5782 5784 5784 5784 5784 5785 5785 5786 5787 5788 5789 5789 5790 5793 5795 5794 5794 5794 5796 5797 5797 5797 5797 5798 5798 5798 5799 5799 5800 5800 5801 5802 5802 5803 5804 5804 5805
5755 5755 5755 5755 5755 5756 5756 5756 5757 5757 5757 5758 5758 5758 5758 5759 5759 5759 5760 5760 5760 5761 5761 5762 5762 5763 5763 5763 5763 5764 5764 5764 5764 5765 5765 5765 5766 5766 5767 5767 5767 5768 5768 5769 5770 5771 5772 5773 5773 5774 5774 5775 5775 5775 5775 5775 5775 5775 5775 5776 5776 5777 5778 5778 5779 5779 5779 5780 5780 5780 5780 5781 5782 5783 5783 5784 5785 5785 5786 5787 5788 5789 5790 5791 5792 5794 5794 5794 5794 5795 5795 5795 5795 5796 5797 5797 5798 5799 5799 5800 5801 5801 5802
5750 5750 5750 5750 5751 5751 5751 5752 5752 5753 5753 5753 5754 5754 5755 5754 5754 5755 5755 5755 5756 5757 5757 5758 5759 5759 5760 5760 5760 5760 5761 5761 5761 5761 5761 5762 5763 5763 5763 5763 5764 5764 5765 5765 5766 5767 5768 5769 5770 5770 5770 5771 5771 5771 5771 5771 5771 5771 5771 5772 5772 5773 5774 5775 5775 5775 5775 5776 5776 5777 5777 5778 5778 5779 5780 5780 5781 5781 5782 5783 5785 5785 5786 5787 5788 5789 5790 5790 5790 5791 5792 5792 5793 5793 5793 5794 5795 5795 5796 5797 5798 5798 5799
5746 5746 5746 5746 5746 5746 5746 5747 5748 5748 5749 5749 5749 5750 5750 5750 5750 5751 5751 5751 5752 5752 5753 5754 5755 5755 5755 5756 5756 5756 5756 5757 5758 5758 5758 5759 5759 5759 5760 5760 5760 5760 5761 5761 5762 5763 5764 5765 5766 5766 5767 5767 5768 5768 5767 5767 5767 5767 5767 5768 5768 5769 5770 5770 5771 5771 5772 5773 5773 5773 5774 5774 5775 5775 5776 5776 5777 5778 5779 5780 5780 5781 5782 5783 5784 5785 5785 5786 5787 5787 5788 5789 5790 5791 5790 5791 5791 5792 5793 5794 5794 5795 5796
5742 5742 5741 5741 5741 5741 5741 5742 5742 5743 5744 5744 5744 5745 5745 5746 5746 5746 5747 5747 5748 5748 5749 5750 5750 5751 5751 5752 5752 5752 5753 5753 5754 5755 5755 5755 5755 5756 5756 5757 5757 5757 5757 5758 5758 5759 5760 5761 5762 5762 5763 5764 5765 5765 5764 5763 5763 5763 5763 5764 5764 5765 5765 5766 5767 5767 5768 5769 5770 5770 5770 5771 5771 5772 5772 5773 5773 5774 5775 5775 5777 5778 5779 5780 5780 5781 5782 5782 5783 5784 5785 5787 5788 5788 5787 5788 5788 5789 5790 5790 5791 5792 5792
5737 5737 5737 5737 5737 5736 5737 5737 5737 5738 5738 5739 5739 5740 5740 5741 5741 5742 5742 5743 5744 5744 5745 5745 5745 5746 5747 5747 5748 5748 5749 5749 5750 5750 5751 5752 5752 5752 5752 5752 5753 5754 5754 5754 5755 5755 5756 5757 5758 5758 5759 5759 5760 5761 5761 5761 5760 5759 5759 5759 5760 5760 5761 5762 5763 5763 5764 5765 5765 5766 5767 5767 5768 5768 5769 5769 5770 5770 5771 5772 5773 5774 5775 5776 5777 5777 5778 5779 5780 5780 5781 5783 5784 5784 5784 5785 5786 5786 5786 5787 5787 5788 5789
5731 5732 5732 5732 5732 5732 5732 5732 5732 5733 5733 5734 5734 5735 5735 5735 5736 5736 5737 5738 5739 5740 5740 5741 5741 5741 5742 5742 5743 5744 5744 5745 5745 5746 5747 5747 5748 5748 5748 5748 5749 5750 5751 5750 5750 5751 5752 5753 5753 5754 5756 5756 5756 5756 5757 5757 5757 5756 5755 5755 5755 5756 5757 5758 5759 5759 5760 5760 5761 5762 5763 5763 5764 5765 5765 5766 5766 5767 5768 5769 5770 5770 5771 5772 5773 5774 5775 5775 5776 5777 5778 5779 5779 5780 5781 5783 5783 5783 5783 5783 5784 5785 5785
5726 5726 5727 5727 5727 5727 5727 5727 5727 5728 5728 5729 5729 5730 5730 5730 5730 5731 5731 5733 5734 5735 5735 5736 5736 5737 5737 5738 5738 5739 5740 5740 5741 5741 5742 5743 5744 5744 5744 5745 5745 5745 5746 5746 5747 5748 5748 5749 5749 5750 5753 5754 5752 5751 5752 5753 5753 5753 5753 5752 5752 5753 5753 5754 5755 5755 5755 5756 5757 5758 5759 5760 5760 5761 5762 5762 5763 5764 5765 5765 5766 5767 5768 5768 5769 5770 5771 5772 5772 5773 5774 5775 5776 5777 5778 5779 5779 5779 5780 5780 5780 5781 5782
5721 5721 5721 5721 5721 5721 5722 5722 5722 5723 5723 5723 5724 5725 5725 5725 5725 5725 5726 5727 5729 5730 5730 5731 5731 5732 5733 5733 5733 5734 5735 5735 5736 5736 5737 5738 5739 5740 5740 5741 5741 5742 5742 5743 5743 5744 5744 5745 5745 5746 5748 5749 5748 5747 5748 5749 5750 5750 5750 5749 5750 5750 5750 5750 5751 5751 5752 5752 5752 5753 5755 5756 5757 5757 5758 5759 5760 5760 5761 5762 5762 5763 5764 5765 5765 5766 5767 5768 5769 5770 5770 5771 5772 5773 5774 5775 5776 5776 5777 5777 5777 5778 5779
5715 5716 5716 5716 5716 5716 5716 5717 5717 5717 5718 5718 5719 5719 5720 5720 5720 5720 5721 5722 5723 5724 5725 5726 5726 5726 5728 5728 5728 5729 5729 5730 5730 5731 5732 5733 5734 5735 5736 5737 5737 5738 5738 5739 5739 5740 5741 5741 5741 5742 5743 5745 5745 5744 5745 5745 5746 5746 5746 5746 5746 5747 5748 5748 5749 5749 5749 5749 5749 5750 5751 5752 5753 5754 5754 5755 5755 5756 5757 5758 5759 5759 5760 5760 5761 5762 5763 5764 5765 5766 5767 5768 5769 5770 5770 5771 5772 5772 5773 5774 5774 5775 5775
5710 5710 5710 5710 5711 5711 5711 5711 5712 5712 5713 5713 5714 5714 5714 5715 5715 5715 5716 5717 5718 5719 5720 5720 5720 5721 5722 5723 5723 5723 5725 5725 5725 5726 5727 5728 5729 5730 5731 5732 5732 5733 5734 5735 5735 5735 5737 5737 5737 5739 5740 5742 5741 5740 5740 5740 5741 5742 5743 5742 5742 5742 5743 5744 5744 5745 5745 5746 5746 5746 5747 5748 5749 5750 5751 5751 5751 5752 5753 5754 5754 5755 5756 5756 5757 5758 5759 5760 5761 5762 5763 5764 5765 5765 5766 5767 5768 5769 5770 5770 5771 5771 5772
5705 5705 5705 5705 5705 5705 5705 5706 5706 5707 5708 5708 5709 5709 5709 5710 5710 5710 5711 5712 5713 5714 5714 5715 5715 5716 5717 5717 5718 5719 5720 5720 5720 5721 5721 5723 5724 5725 5726 5726 5727 5728 5729 5730 5730 5731 5732 5733 5733 5734 5735 5735 5735 5735 5735 5735 5736 5738 5738 5739 5739 5738 5739 5739 5740 5741 5741 5742 5743 5743 5744 5745 5745 5745 5746 5747 5748 5748 5749 5749 5750 5751 5752 5753 5754 5754 5755 5756 5757 5758 5759 5760 5761 5762 5763 5764 5765 5765 5766 5767 5767 5768 5769
5699 5700 5700 5700 5700 5700 5700 5700 5701 5702 5702 5703 5703 5703 5704 5704 5705 5705 5705 5706 5707 5708 5709 5710 5710 5711 5712 5713 5714 5714 5715 5715 5715 5716 5717 5717 5718 5719 5720 5721 5722 5723 5724 5725 5726 5727 5727 5728 5729 5729 5730 5730 5730 5730 5730 5731 5732 5734 5735 5736 5735 5734 5735 5736 5737 5737 5738 5739 5739 5740 5740 5741 5742 5742 5742 5744 5744 5745 5745 5745 5746 5747 5748 5749 5750 5750 5751 5752 5753 5754 5755 5756 5757 5758 5759 5760 5761 5762 5763 5764 5764 5765 5766
5694 5694 5694 5694 5694 5694 5694 5694 5695 5696 5697 5698 5698 5698 5699 5699 5700 5700 5700 5701 5702 5703 5704 5704 5705 5706 5707 5707 5708 5709 5710 5710 5710 5711 5712 5712 5713 5714 5715 5716 5716 5718 5719 5720 5721 5722 5722 5723 5724 5725 5725 5725 5726 5726 5726 5727 5728 5730 5732 5732 5731 5730 5731 5732 5733 5734 5734 5735 5736 5736 5737 5737 5738 5738 5739 5740 5740 5740 5741 5742 5742 5743 5743 5745 5745 5746 5748 5749 5750 5750 5751 5752 5753 5754 5755 5756 5757 5758 5760 5760 5761 5761 5762
5688 5688 5689 5689 5689 5689 5689 5689 5689 5690 5691 5692 5692 5693 5694 5694 5695 5695 5695 5696 5696 5697 5699 5699 5700 5701 5702 5702 5702 5703 5704 5704 5705 5706 5706 5706 5708 5709 5710 5710 5711 5712 5713 5715 5716 5716 5717 5718 5719 5720 5720 5721 5721 5722 5722 5722 5724 5726 5726 5727 5726 5726 5727 5728 5729 5730 5730 5731 5732 5733 5734 5734 5734 5735 5736 5737 5736 5735 5736 5737 5738 5738 5739 5740 5741 5742 5744 5745 5746 5746 5747 5748 5749 5750 5751 5752 5753 5755 5756 5757 5757 5758 5759
5682 5682 5683 5683 5683 5683 5683 5683 5683 5684 5685 5686 5687 5688 5688 5689 5690 5690 5690 5690 5691 5692 5693 5694 5695 5695 5696 5697 5697 5698 5699 5699 5700 5701 5701 5701 5703 5704 5704 5705 5706 5707 5708 5709 5710 5711 5712 5713 5713 5714 5716 5716 5717 5717 5717 5718 5720 5721 5722 5723 5723 5722 5723 5724 5725 5726 5727 5728 5729 5730 5730 5731 5731 5733 5736 5735 5734 5733 5732 5732 5733 5734 5735 5736 5737 5738 5740 5741 5742 5743 5744 5745 5745 5746 5747 5748 5750 5751 5752 5754 5754 5754 5755
5676 5676 5677 5677 5677 5677 5677 5678 5678 5678 5679 5680 5681 5682 5683 5684 5685 5685 5685 5685 5686 5686 5687 5688 5689 5690 5691 5691 5692 5692 5693 5694 5695 5695 5696 5696 5697 5699 5699 5700 5701 5701 5703 5705 5705 5705 5707 5707 5708 5709 5710 5711 5712 5712 5713 5713 5714 5715 5718 5718 5718 5718 5719 5720 5721 5722 5723 5724 5725 5726 5727 5727 5729 5731 5733 5732 5731 5731 5729 5729 5730 5730 5732 5732 5733 5735 5736 5737 5738 5739 5740 5741 5742 5743 5744 5745 5745 5746 5748 5749 5750 5751 5752
5670 5670 5671 5671 5671 5671 5672 5672 5672 5673 5673 5674 5675 5676 5677 5678 5679 5680 5680 5680 5681 5681 5682 5683 5684 5685 5685 5685 5686 5687 5688 5689 5689 5690 5690 5691 5692 5693 5694 5695 5696 5696 5698 5700 5700 5699 5701 5702 5703 5704 5705 5706 5707 5707 5708 5709 5710 5710 5712 5713 5714 5715 5716 5716 5717 5718 5719 5720 5720 5721 5723 5723 5725 5726 5729 5729 5726 5724 5724 5725 5726 5726 5727 5728 5730 5731 5732 5733 5734 5735 5736 5737 5738 5739 5740 5741 5741 5742 5744 5745 5745 5747 5748
5665 5665 5665 5665 5665 5665 5666 5666 5667 5667 5668 5668 5669 5670 5671 5672 5673 5674 5674 5675 5675 5676 5677 5677 5678 5680 5680 5680 5680 5681 5682 5683 5684 5685 5685 5686 5687 5688 5688 5689 5690 5692 5692 5694 5695 5694 5695 5698 5699 5699 5699 5701 5702 5703 5703 5704 5705 5705 5707 5708 5709 5710 5712 5712 5713 5714 5715 5716 5716 5718 5718 5719 5719 5720 5722 5721 5720 5719 5720 5721 5722 5723 5723 5725 5726 5727 5728 5729 5730 5731 5732 5733 5734 5735 5736 5737 5738 5739 5740 5740 5741 5743 5744
5660 5659 5659 5659 5660 5660 5660 5660 5661 5661 5662 5663 5664 5665 5665 5666 5667 5668 5668 5669 5670 5671 5671 5672 5673 5674 5675 5675 5675 5676 5677 5678 5678 5679 5680 5680 5682 5683 5683 5684 5685 5686 5687 5688 5689 5690 5691 5693 5694 5694 5693 5695 5697 5698 5697 5699 5700 5700 5702 5703 5705 5705 5706 5707 5709 5710 5711 5713 5714 5715 5715 5716 5716 5716 5715 5715 5715 5716 5716 5717 5719 5720 5720 5721 5722 5723 5724 5725 5726 5728 5729 5730 5730 5731 5732 5733 5734 5735 5735 5736 5737 5739 5740
5654 5653 5653 5653 5653 5653 5654 5654 5655 5655 5656 5657 5658 5659 5660 5660 5661 5662 5663 5664 5664 5665 5666 5666 5667 5668 5669 5670 5670 5670 5671 5672 5673 5674 5675 5675 5676 5677 5678 5679 5679 5680 5682 5683 5684 5685 5686 5688 5689 5689 5687 5690 5692 5693 5692 5694 5695 5695 5696 5698 5699 5700 5701 5702 5703 5705 5707 5708 5710 5710 5711 5711 5712 5711 5710 5711 5711 5712 5712 5713 5714 5715 5715 5717 5718 5719 5720 5721 5722 5724 5725 5726 5727 5727 5728 5729 5730 5731 5732 5733 5734 5735 5735
5647 5647 5647 5647 5647 5647 5647 5648 5648 5649 5650 5651 5652 5653 5654 5655 5655 5656 5657 5658 5658 5659 5660 5661 5662 5662 5663 5664 5665 5665 5665 5666 5667 5668 5669 5670 5670 5671 5673 5674 5674 5675 5677 5678 5679 5680 5681 5683 5684 5683 5683 5685 5687 5687 5688 5689 5690 5690 5691 5693 5694 5695 5696 5697 5698 5699 5701 5702 5703 5704 5705 5706 5706 5706 5706 5707 5707 5708 5709 5709 5710 5710 5711 5712 5713 5714 5715 5716 5718 5720 5721 5722 5723 5724 5724 5725 5726 5727 5728 5729 5730 5730 5731
5640 5640 5640 5640 5640 5640 5640 5641 5642 5643 5644 5645 5645 5646 5647 5648 5649 5650 5650 5651 5652 5653 5654 5655 5656 5656 5657 5658 5659 5660 5660 5660 5661 5662 5664 5664 5665 5665 5667 5668 5669 5670 5671 5672 5674 5675 5676 5677 5678 5678 5680 5680 5681 5681 5684 5684 5685 5685 5687 5688 5689 5690 5691 5692 5693 5694 5695 5697 5698 5699 5700 5701 5702 5702 5702 5703 5703 5704 5705 5705 5706 5706 5707 5708 5708 5709 5710 5711 5713 5715 5717 5718 5719 5720 5720 5721 5722 5723 5724 5725 5725 5726 5727
5633 5633 5633 5633 5633 5633 5634 5634 5635 5636 5637 5638 5639 5640 5641 5641 5642 5643 5644 5645 5645 5646 5648 5649 5650 5650 5651 5652 5653 5654 5654 5654 5655 5657 5658 5659 5659 5660 5661 5663 5664 5665 5666 5667 5668 5669 5670 5671 5672 5674 5675 5675 5675 5676 5679 5679 5680 5681 5682 5683 5684 5685 5687 5688 5689 5690 5691 5692 5693 5694 5695 5696 5698 5698 5698 5699 5700 5701 5701 5701 5702 5702 5703 5704 5704 5705 5706 5707 5709 5710 5712 5714 5715 5715 5716 5717 5718 5719 5720 5721 5721 5722 5723
5626 5626 5625 5625 5625 5626 5626 5627 5628 5629 5630 5631 5632 5633 5634 5635 5635 5636 5637 5638 5639 5640 5641 5642 5643 5644 5645 5646 5647 5648 5648 5649 5650 5651 5652 5653 5653 5654 5656 5657 5658 5659 5660 5661 5662 5663 5665 5665 5667 5668 5670 5670 5671 5672 5673 5674 5675 5677 5677 5678 5679 5681 5682 5683 5684 5685 5686 5687 5689 5690 5690 5691 5692 5693 5694 5695 5696 5696 5696 5697 5698 5698 5699 5700 5700 5701 5702 5703 5705 5706 5708 5709 5710 5711 5712 5713 5714 5715 5715 5716 5717 5718 5719